Weather History for Guadalajara Don Miguel, Mexico

Change the Weather History Date:

Tuesday, January 8, 2013

  Actual Average Record
Temperature  
Mean Temperature 62 °F -  
Max Temperature 68 °F 73 °F 78 °F (1999)
Min Temperature 55 °F 37 °F 26 °F (2006)
Degree Days  
Heating Degree Days 4    
Growing Degree Days 12 (Base 50)    
Moisture  
Dew Point 51 °F    
Average Humidity 70    
Maximum Humidity 88    
Minimum Humidity 52    
Precipitation  
Precipitation 0.55 in - - ()
Sea Level Pressure  
Sea Level Pressure 30.00 in    
Wind  
Wind Speed 3 mph ()    
Max Wind Speed 15 mph    
Max Gust Speed -    
Visibility 9.8 miles    
Events Rain    
Averages and records for this station are not official NWS values.
T = Trace of Precipitation, MM = Missing Value Source: Averaged Metar Reports

Daily Weather History Graph

Daily Weather History Graph

Search for Another Location

Airport:

Trip Planner

Search our weather history database for the weather conditions in past years. The results will help you decide how hot, cold, wet, or windy it might be!

Date:

Astronomy

Jan. 08, 2013 Rise Set
Actual Time 7:31 AM CST 6:29 PM CST
Civil Twilight 7:07 AM CST 6:53 PM CST
Nautical Twilight 6:40 AM CST 7:20 PM CST
Astronomical Twilight 6:13 AM CST 7:47 PM CST
Moon 4:09 AM CST (1/8) 3:32 PM CST (1/8)
Length of Visible Light 11h 45m
Length of Day
10h 57m
Waning Crescent, 13% of the Moon is Illuminated
Jan 8
Waning Crescent
Jan 11
New
Jan 18
First Quarter
Jan 26
Full
Feb 3
Last Quarter

Hourly Weather History & Observations

Time (CST) Temp. Dew Point Humidity Pressure Visibility Wind Dir Wind Speed Gust Speed Precip Events Conditions
12:44 AM 57.2 °F 50.0 °F 77% 30.10 in 10.0 mi SW 3.5 mph - N/A   Mostly Cloudy
1:42 AM 59.0 °F 50.0 °F 72% 30.09 in 10.0 mi SW 3.5 mph - N/A   Mostly Cloudy
2:40 AM 59.0 °F 50.0 °F 72% 29.77 in 10.0 mi South 4.6 mph - N/A   Mostly Cloudy
3:45 AM 55.4 °F 50.0 °F 82% 30.06 in 10.0 mi Calm Calm - N/A   Scattered Clouds
4:45 AM 57.2 °F 51.8 °F 82% 30.05 in 10.0 mi Calm Calm - N/A   Mostly Cloudy
5:46 AM 59.0 °F 48.2 °F 67% 29.79 in 10.0 mi Calm Calm - N/A   Mostly Cloudy
6:40 AM 57.2 °F 50.0 °F 77% 30.07 in 10.0 mi SW 3.5 mph - N/A   Mostly Cloudy
7:50 AM 55.4 °F 51.8 °F 88% 30.11 in 8.0 mi Calm Calm - N/A   Mostly Cloudy
8:55 AM 57.2 °F 51.8 °F 82% 29.92 in 8.0 mi Calm Calm - N/A   Overcast
9:52 AM 59.0 °F 51.8 °F 77% 30.16 in 10.0 mi WNW 3.5 mph - N/A   Overcast
10:48 AM 62.6 °F 50.0 °F 63% 30.14 in 10.0 mi Calm Calm - N/A   Overcast
11:47 AM 68.0 °F 51.8 °F 56% 29.88 in 10.0 mi Calm Calm - N/A   Mostly Cloudy
12:55 PM 66.2 °F 50.0 °F 56% 30.10 in 10.0 mi West 9.2 mph - N/A   Overcast
1:52 PM 68.0 °F 50.0 °F 52% 30.07 in 10.0 mi West 9.2 mph - N/A   Overcast
2:53 PM 64.4 °F 53.6 °F 68% 29.83 in 10.0 mi West 15.0 mph - N/A Rain Light Rain
3:50 PM 66.2 °F 53.6 °F 64% 30.05 in 10.0 mi West 4.6 mph - N/A   Overcast
4:49 PM 62.6 °F 51.8 °F 68% 30.04 in 10.0 mi WSW 12.7 mph - N/A Rain Light Rain
5:54 PM 62.6 °F 51.8 °F 68% 29.83 in 10.0 mi SSW 3.5 mph - N/A   Overcast
6:52 PM 62.6 °F 50.0 °F 63% 30.05 in 10.0 mi SSW 9.2 mph - N/A   Mostly Cloudy
7:48 PM 62.6 °F 50.0 °F 63% 30.06 in 10.0 mi NW 5.8 mph - N/A   Mostly Cloudy
8:49 PM 59.0 °F 50.0 °F 72% 29.88 in 10.0 mi WSW 5.8 mph - N/A   Mostly Cloudy
9:48 PM 59.0 °F 50.0 °F 72% 30.09 in 10.0 mi SSW 4.6 mph - N/A   Mostly Cloudy
10:47 PM 60.8 °F 50.0 °F 68% 30.08 in 10.0 mi WSW 6.9 mph - N/A   Mostly Cloudy
11:53 PM 60.8 °F 50.0 °F 68% 29.83 in 10.0 mi SSW 3.5 mph - N/A   Mostly Cloudy